Date,TemperatureHighF,TemperatureAvgF,TemperatureLowF,DewpointHighF,DewpointAvgF,DewpointLowF,HumidityHigh,HumidityAvg,HumidityLow,PressureMaxIn,PressureMinIn,WindSpeedMaxMPH,WindSpeedAvgMPH,GustSpeedMaxMPH,PrecipitationSumIn
2013-3-1,37.6,33.7,31.1,34.0,30.9,29.0,94,90,80,29.79,29.62,3,0,0,0.02
2013-3-2,37.7,30.5,25.7,28.0,24.8,23.0,91,80,61,29.80,29.73,6,2,0,0.02
2013-3-3,31.3,25.9,21.2,23.0,19.7,16.0,87,77,67,29.78,29.71,7,2,0,0.06
2013-3-4,33.0,28.4,24.6,22.0,19.3,17.0,76,69,58,29.93,29.77,8,3,0,0.01
2013-3-5,40.6,31.8,27.5,27.0,23.1,20.0,84,71,57,30.11,29.93,4,1,0,0.01
2013-3-6,40.0,34.1,28.1,31.0,26.5,23.0,88,74,60,30.16,30.07,8,1,0,0.00
2013-3-7,37.4,33.2,29.3,29.0,25.4,21.0,92,74,55,30.18,30.12,6,1,0,0.00
2013-3-8,41.0,32.2,27.7,30.0,27.1,24.0,93,82,62,30.32,30.13,4,0,0,0.22
2013-3-9,51.8,35.1,22.1,26.0,22.7,19.0,91,65,34,30.38,30.30,5,0,0,0.00
2013-3-10,55.1,39.9,23.9,30.0,23.7,20.0,88,57,30,30.37,30.20,9,2,0,0.00
2013-3-11,49.4,43.4,36.3,40.0,33.7,30.0,79,69,56,30.23,30.00,12,3,0,0.00
2013-3-12,52.8,47.3,36.8,50.0,43.5,33.0,94,86,78,30.02,29.69,11,3,0,0.67
2013-3-13,45.1,37.1,31.8,32.0,25.8,19.0,89,66,36,29.88,29.79,8,3,0,0.00
2013-3-14,32.0,26.3,23.2,21.0,12.9,6.0,75,58,42,29.93,29.83,16,4,0,0.00
2013-3-15,35.3,28.2,18.5,30.0,17.6,7.0,88,65,48,29.97,29.66,7,2,0,0.00
2013-3-16,36.3,28.2,19.8,26.0,14.9,8.0,87,59,32,29.93,29.79,4,1,0,0.01
2013-3-17,35.2,27.4,18.0,15.0,6.1,-1.0,72,44,23,30.36,29.94,6,2,0,0.00
2013-3-18,34.9,25.7,14.6,26.0,9.3,3.0,90,53,28,30.47,30.11,4,1,0,0.00
2013-3-19,33.1,29.8,26.3,31.0,27.9,23.0,94,92,88,30.10,29.73,3,0,0,0.09
2013-3-20,34.9,26.4,19.7,25.0,19.0,-99.9,90,77,58,29.83,29.77,8,-10,0,0.18
2013-3-21,36.3,27.0,16.4,20.0,15.3,12.0,87,64,41,29.83,29.66,7,2,0,0.12
2013-3-22,34.5,27.8,20.4,23.0,18.5,12.0,79,69,57,29.83,29.70,10,3,0,0.00
2013-3-23,39.9,33.1,25.9,24.0,20.5,17.0,86,62,41,29.90,29.78,12,3,0,0.00
2013-3-24,42.9,35.2,30.4,26.0,22.4,20.0,72,60,43,29.92,29.78,6,2,0,0.00
2013-3-25,41.9,35.3,29.0,28.0,25.3,23.0,78,68,53,29.80,29.55,5,1,0,0.00
2013-3-26,46.2,38.1,31.2,29.0,24.4,19.0,82,60,34,29.86,29.63,6,1,0,0.00
2013-3-27,48.2,38.0,28.4,33.0,26.7,19.0,79,65,48,29.96,29.84,8,2,0,0.00
2013-3-28,48.0,40.4,34.1,35.0,31.5,28.0,86,71,55,30.10,29.95,5,2,0,0.00
2013-3-29,48.6,41.3,35.7,32.0,30.1,28.0,77,65,47,30.13,30.06,10,2,0,0.00
2013-3-30,55.0,43.0,30.2,31.0,23.2,14.0,85,51,20,30.15,30.05,8,2,0,0.00
2013-3-31,55.6,41.8,27.1,39.0,25.9,18.0,91,58,27,30.12,29.73,7,2,0,0.19